Mohamed Tahrat

Olheiro-Chefe - USM Alger
13 Jan 2028
Quinta-feira
Processo

Personalidade

Adaptabilidade (16) Ambição (14) Controvérsia (16) Lealdade (7) Pressão (3) Profissionalismo (1) Espírito Esportivo (13) Temperamento (8)

Perfil

Estilo de Treinamento Democrático
Licença Continental B
Determinação 9
Gestão de Pessoas 4
Motivação 9
Disciplina 6
Satisfação no Trabalho
100%
Fadiga
0%
Função Olheiro-Chefe
Salário 62.3K p/s
Contrato 14.03.2029

Desempenho

Comportamento Bom
Eficácia do Treinamento
48%
Desenvolvimento do Jogador
45%
Prevenção de Lesões
20%
Implementação Tática
55%

Eventos Recentes

Participou de uma reunião de recrutamento agora
Participou de uma reunião de recrutamento agora
Avaliou um jogador 7d atrás
Participou de uma reunião de recrutamento 7d atrás
Participou de uma reunião de recrutamento 7d atrás
Participou de uma reunião de recrutamento 7d atrás
Observou uma partida 7d atrás
Observou uma partida 14d atrás

Monitorando agora

139
Jogador Clube Status Habilidade Confiança Observado Última observação Último voto
Lewis Morgan SuperSport United Ativo 135 / 122 40% 5 12.01.2028 -
Gianluca Pugliese Güemes Ativo 125 / 107 40% 1 12.01.2028 -
Juan Camilo Córdoba Deportivo Pereira Ativo 86 / 101 40% 1 03.01.2028 -
Moustapha Sémbène Hajer Ativo 107 / 114 40% 1 03.01.2028 -
Salah Eddine Zaoui Paradou Ativo 106 / 101 55% 1 01.01.2028 -
Rodrigo Bogarín Barracas Central Ativo 113 / 106 40% 1 31.12.2027 -
Agustín Gallo Tristán Suárez Ativo 113 / 97 40% 1 31.12.2027 -
Lorent Tolaj Plymouth Argyle Ativo 119 / 115 40% 2 05.07.2027 -
Elijah Adebayo Luton Town Ativo 120 / 111 40% 1 05.07.2027 -
Oto John ES Mostaganem Ativo 107 / 105 55% 1 14.06.2027 -
Othmane Maamma Watford Ativo 128 / 123 40% 1 14.06.2027 -
Ryoya Morishita Blackburn Rovers Ativo 142 / 114 40% 1 14.06.2027 -
Tyreece Campbell Charlton Athletic Ativo 134 / 124 40% 1 31.05.2027 -
Ronan Hale Gillingham Ativo 120 / 118 40% 1 30.05.2027 -
Joe Gelhardt Hull City Ativo 146 / 135 40% 1 30.05.2027 -
Rodrigo Mora AS Roma Ativo 133 / 155 40% 1 30.05.2027 -
Kasey McAteer Ipswich Town Ativo 114 / 137 40% 2 29.05.2027 -
Harry Clarke Preston Ativo 131 / 131 40% 1 29.05.2027 -
Dom Ballard Leyton Orient Ativo 114 / 114 40% 1 26.05.2027 -
Themba Ngcobo SuperSport United Ativo 136 / 110 40% 4 25.05.2027 -
Aune Heggebø West Bromwich Albion Ativo 121 / 131 40% 1 25.05.2027 -
Ilyas Ansah Hull City Ativo 116 / 142 40% 1 25.05.2027 -
Leandro Antunes Al-Riyadh Ativo 106 / 105 40% 5 23.05.2027 -
Niall Ennis Blackpool Ativo 118 / 100 40% 1 23.05.2027 -
Marcus Browne AFC Wimbledon Ativo 103 / 108 40% 1 21.05.2027 -
Isaiah Jones Luton Town Ativo 127 / 116 40% 1 21.05.2027 -
David Turnbull Cardiff City Ativo 120 / 112 40% 1 21.05.2027 -
Youssef En-Nesyri Al-Ittihad Ativo 133 / 143 40% 8 18.05.2027 -
Dion Lopy Al-Ittihad Ativo 133 / 133 40% 3 17.05.2027 -
Dany Mota Monza Ativo 144 / 116 40% 1 17.05.2027 Mais informações
Romano Schmid Frosinone Ativo 137 / 149 40% 1 17.05.2027 -
Mohau Nkota Al-Ettifaq Ativo 122 / 110 40% 5 16.05.2027 -
Musa Barrow Al-Khaleej Ativo 137 / 140 40% 9 14.05.2027 -
Santiago Pierotti Lecce Ativo 138 / 126 40% 1 13.05.2027 -
Silvio Merkaj Vicenza Ativo 118 / 123 40% 2 12.05.2027 -
Evidence Makgopa Orlando Pirates Ativo 123 / 121 40% 4 11.05.2027 -
Wilfried Kanga Al-Fateh Ativo 127 / 121 40% 5 10.05.2027 Observar
Simone Mazzocchi Cosenza Ativo 126 / 101 40% 2 10.05.2027 Mais informações
Steven Bergwijn Al-Ittihad Ativo 135 / 137 40% 6 09.05.2027 -
Moussa Koné Al-Ra'ed Ativo 112 / 121 40% 3 09.05.2027 -
David Okereke Cremonese Ativo 140 / 125 40% 1 07.05.2027 -
Mattéo Tramoni Pisa Ativo 121 / 129 40% 2 06.05.2027 -
Konan N'Dri Lecce Ativo 128 / 119 40% 2 02.05.2027 -
Camillo Tavernelli Arezzo Ativo 106 / 113 40% 1 02.05.2027 -
Haitham Asiri Al-Qadisiyah Ativo 122 / 97 40% 6 29.04.2027 -
Martin Sekulić Ural Ativo 107 / 123 40% 4 27.04.2027 -
Yacine Adli Al-Shabab Ativo 129 / 152 40% 2 27.04.2027 -
Nabil Alioui Al-Nassr Ativo 116 / 116 40% 2 27.04.2027 -
Oswin Appollis Orlando Pirates Ativo 113 / 123 40% 2 25.04.2027 -
Parfait Guiagon Al-Taawoun Ativo 128 / 130 40% 3 23.04.2027 -
Ahmed Al-Nakhli Al-Hazem Ativo 94 / 123 40% 2 22.04.2027 -
Derrick Fordjour Medeama Ativo 84 / 84 40% 2 22.04.2027 -
Brayan León Mamelodi Sundowns Ativo 118 / 129 40% 5 21.04.2027 -
Etiosa Ighodaro Kaizer Chiefs Ativo 105 / 125 40% 4 15.04.2027 -
David Romero Parma Ativo 110 / 132 40% 2 14.04.2027 -
Giuseppe Di Serio Spezia Ativo 124 / 115 40% 1 07.04.2027 -
Joseph Wakaso Wa All Stars Ativo 117 / 104 40% 1 06.04.2027 -
Eduard Spertsyan Al-Ahli Ativo 131 / 150 40% 2 05.04.2027 -
Khalid Al-Ghannam Al-Ettifaq Ativo 118 / 115 40% 1 03.04.2027 -
Marco Tumminello Benevento Ativo 97 / 119 40% 1 31.03.2027 -
Chinedu Geoffrey Krylya Sovetov Ativo 130 / 112 40% 3 24.03.2027 -
Zaydou Youssouf Al-Fateh Ativo 141 / 130 40% 3 23.03.2027 -
Marcelo Allende Mamelodi Sundowns Ativo 117 / 138 40% 1 23.03.2027 -
Crysencio Summerville Al-Hilal Ativo 160 / 143 40% 4 22.03.2027 -
Matheus Gonçalves Al-Ahli Ativo 118 / 140 40% 6 20.03.2027 -
François Kamano Sochi Ativo 121 / 107 40% 2 12.03.2027 -
Radhi Al-Otaibi Al-Ettifaq Ativo 100 / 117 40% 1 07.03.2027 -
Mduduzi Shabalala Kaizer Chiefs Ativo 126 / 128 40% 1 03.03.2027 -
Mihai Lixandru Al-Fateh Ativo 125 / 111 40% 2 27.02.2027 -
Jacques Siwe Rubin Ativo 119 / 111 40% 2 23.02.2027 -
Vladimir Khubulov Dinamo Makhachkala Ativo 102 / 117 40% 1 21.02.2027 -
Vyacheslav Grulev Nizhniy Novgorod Ativo 127 / 105 40% 1 21.02.2027 -
Hlompho Lorch Ajax Cape Town Ativo 86 / 110 40% 1 21.02.2027 -
Kazunari Kita Real Sociedad Ativo 105 / 95 40% 1 21.02.2027 -
Valentin Atangana Al-Ahli Ativo 135 / 141 40% 1 20.02.2027 -
Edarlyn Reyes Arsenal Tula Ativo 102 / 97 40% 1 19.02.2027 -
Mohammad Alsalkhadi Damac Ativo 97 / 102 40% 1 16.02.2027 -
Nicolás Andereggen Ethnikos Achnas Ativo 95 / 97 40% 1 15.02.2027 -
Mikhail Ignatov Sochi Ativo 116 / 116 40% 1 12.02.2027 -
Josh Smith Accrington Stanley Ativo 74 / 78 40% 1 11.02.2027 -
Tiago Freitas Benfica Ativo 103 / 116 40% 1 11.02.2027 -
Ali Majrashi Al-Ahli Ativo 140 / 140 40% 2 10.02.2027 -
Mandla Mahlangu Ajax Cape Town Ativo 97 / 93 40% 1 10.02.2027 -
Everton Bala Levski Ativo 121 / 133 40% 1 06.02.2027 -
Billal Messaoudi JS Kabylie Ativo 120 / 120 40% 2 05.02.2027 -
Leandro Godoy CSKA Sofia Ativo 125 / 120 40% 1 04.02.2027 -
Mahamadou Doumbia Al-Ittihad Ativo 136 / 143 40% 3 02.01.2027 -
Yegor Koshkin Pobeda Ativo 83 / 84 40% 2 30.12.2026 -
Abdalla Zaal HJK Ativo 91 / 64 40% 1 28.12.2026 -
Mayed Al-Kaabi Sharjah Ativo 76 / 87 40% 2 27.12.2026 -
Fabricio Díaz San Lorenzo Ativo 82 / 84 40% 4 26.12.2026 -
Williams Mothiba Black Aces Ativo 98 / 102 40% 6 26.12.2026 Rejeitar
Tshepang Moremi Orlando Pirates Ativo 119 / 111 40% 2 25.12.2026 -
Turki Al-Ammar Al-Qadisiyah Ativo 106 / 115 40% 2 25.12.2026 -
Christopher Bonsu Baah Al-Qadisiyah Ativo 130 / 138 40% 2 23.12.2026 -
Gift Hlatshwayo Free State Stars Ativo 102 / 113 40% 7 19.12.2026 -
Gonçalo Silva Porto Ativo 100 / 83 40% 2 18.12.2026 -
Yury Maleev Ural Ativo 82 / 80 40% 1 18.12.2026 -
Dhari Al-Anazi Al-Shabab Ativo 100 / 112 40% 1 18.12.2026 -
Hamed Al-Ghamdi Al-Ittihad Ativo 120 / 98 40% 1 13.12.2026 -
Mohamed Tarek ENPPI Ativo 82 / 85 40% 1 12.12.2026 -
Bonheur Mugisha Al-Hazem Ativo 108 / 106 40% 1 07.12.2026 -
Ignacio Coscio Huracán Ativo 93 / 100 40% 1 03.12.2026 -
Maxim Shichanin Zenit Ativo 91 / 103 40% 1 03.12.2026 -
Youssef Beshir ENPPI Ativo 78 / 70 40% 1 30.11.2026 -
Milson Al Jazira Ativo 132 / 108 40% 1 30.11.2026 -
Yasser Al-Sultan Al-Mojzel Ativo 74 / 77 40% 4 26.11.2026 -
Ahmed Menshawi Ittihad Ativo 86 / 93 40% 3 24.11.2026 -
Ahmed Waheb Zlate Moravce Ativo 62 / 83 40% 1 24.11.2026 -
Prince Guèye Al Wahda Ativo 74 / 110 40% 4 23.11.2026 -
Hamza Khaled Petrojet Ativo 70 / 82 40% 1 23.11.2026 -
Greisha New Edubiase United Ativo 85 / 77 40% 1 22.11.2026 -
Mateo Raschia Unión de Santa Fe Ativo 92 / 112 40% 1 20.11.2026 -
Guilherme Pires Sporting CP Ativo 75 / 105 40% 2 18.11.2026 -
Serginho Al Wasl Ativo 114 / 116 40% 1 18.11.2026 -
Tommaso Orsini Sambenedettese Ativo 106 / 96 40% 1 16.11.2026 -
Thiago Perruisset Boca Juniors Ativo 77 / 92 40% 1 15.11.2026 -
Axell Amaral Al Ain Ativo 85 / 90 40% 3 13.11.2026 -
Aiman Yahya Al-Nassr Ativo 115 / 119 40% 2 10.11.2026 -
Daniel Kyerewaa Reading Ativo 128 / 114 40% 1 10.11.2026 -
Lautaro Vera Platense Ativo 92 / 99 40% 1 05.11.2026 -
Marcos Ferreira Miramar Misiones Ativo 89 / 101 40% 3 04.11.2026 -
Ramiro Buratti River Plate Ativo 102 / 85 40% 1 30.10.2026 -
Richard Medvedev Khazar Ativo 99 / 111 40% 2 29.10.2026 -
Luis Montilla San Telmo Ativo 76 / 110 40% 1 28.10.2026 -
Jadsom Al Wahda Ativo 144 / 126 40% 1 23.10.2026 -
Jerónimo Gutiérrez Independiente Rivadavia Ativo 89 / 105 40% 1 16.10.2026 -
Valentín Díaz Temperley Ativo 88 / 95 40% 1 13.10.2026 -
Adam Gnezda Čerin Al Wahda Ativo 116 / 107 40% 1 12.10.2026 -
Emiliano Zacca Deportivo Riestra Ativo 90 / 110 40% 1 07.10.2026 -
Jakub Badžgoň MSK Zilina Ativo 94 / 94 40% 1 26.09.2026 -
Andy Ezekiel Chikhura Ativo 83 / 83 40% 1 23.09.2026 -
Ignacio Abarza Huracán Ativo 86 / 76 40% 2 21.09.2026 -
Adrián Csenterics Estudiantes de Merida Ativo 105 / 107 40% 2 19.09.2026 -
Santiago Garro Almirante Brown Ativo 71 / 82 40% 1 13.09.2026 -
Alfonso Álvarez Ferro Carril Oeste Ativo 94 / 111 40% 1 09.09.2026 -
Gerardo Díaz San Martín SJ Ativo 103 / 89 40% 1 08.09.2026 -
Ramón Mierez Al Nasr Ativo 137 / 105 40% 1 17.08.2026 -
Abdelkader Boussaid ASO Chlef Ativo 98 / 82 51% 1 10.08.2026 -